Погода в Степановке

Россия / Красноярский край     55°11′15″N   95°45′37″E
темп.,
°C
ветер,
м/с
пор.,
м/с
влажн.,
%
обл.,
%
осадки,
мм/ч
давл.,
гПа
погр.,
м
13 июня, вс
вс1301:00+8зюз1179100 0.0 101310
04:00+8зюз1183100 0.0 101321
07:00+11зюз2366100 0.0 1013269
10:00+17зсз234095 0.0 10111068
13:00+19зсз453493 0.0 10102440
16:00+19зсз4736100 0.0 10092338
19:00+17зюз2554100 0.0 1009278
22:00+11з2779100 0.1 1011288
14 июня, пн
пн1401:00+10зюз41296100 1.4 1011938
04:00+10з41194100 5.3 1010686
07:00+9зсз3899100 12.1 1011570
10:00+10ссз37907 6.3 1013910
13:00+14сз4752100 6.5 10141999
16:00+14сз45639 0.9 10151385
19:00+12сз257857 2.4 1016345
22:00+7ююз22895 0.1 101817
15 июня, вт
вт1501:00+6юз229292 0.3 101843
04:00+5юз22936 0.0 101844
07:00+10зюз37806 0.0 1018260
10:00+17з464181 0.0 10171913
13:00+17зсз364686 0.0 10162203
16:00+18зсз4745100 0.0 10151972
19:00+15зюз2668100 0.3 1016373
22:00+10юз2489100 0.1 101759
16 июня, ср
ср1601:00+10юз1185100 0.2 101634
04:00+9ю2598100 2.8 1016140
07:00+10ююв3897100 10.1 1015246
10:00+10ю2899100 10.2 1014357
13:00+11юз2896100 14.9 1013333
16:00+12юз2598100 3.6 1013161
19:00+13ююз1399100 11.5 1012162
22:00+12ююз1199100 3.6 101231
17 июня, чт
чт1701:00+12ю2399100 11.0 101179
04:00+12в1199100 0.4 101237
07:00+12вюв1399100 0.8 1012140
10:00+14в1295100 0.2 1012237
13:00+17ююв1283100 0.4 1011483
16:00+22юв1259100 0.2 10091285
19:00+15ююз3698100 6.9 1009276
22:00+14ю2898100 2.8 1008297